STARLINK-5492, 55331

Orbit data source: Space-Track

STARLINK-5492, 55331 is a payload satellite owned by SpaceX/Seattle (US) in LEO that was launched on Thu, 26 Jan 2023 UTC via an FALCON 9 launch vehicle from the Air Force Eastern Test Range (AFETR). Payload-class satellites include a variety of spacecraft equipped with specific instruments for various scientific and technological missions. These include communications satellites like Starlink; space stations such as the ISS; scientific satellites like the Hubble; Earth observation satellites from companies like Planet Labs, Umbra, and HawkEye 360; GPS; miniature CubeSats for education and research; and military/defense satellites.

Loading next visibility...
Identifier
55331, 2023-013A
Orbit
LEO
Country
Flag of USUS
Related business
Manufacturer
SpaceX/Seattle
Mission
Operational Commercial Communications
Bus & Motor
STARLINK, Unknown motor
Mass
305 kg wet, ~290 kg dry
Launch date (UTC)
2023-01-26 (3 years ago)
Launch vehicle
FALCON 9
Launch site
Air Force Eastern Test Range (AFETR)
Object type
Payload
Rocket body
Debris
Shape & HBR
Box + 1 Pan, 10.1 m
Radar Cross Section
13.562 m², Large (>1 m²)

Expand to show TLE details & history
Last TLE update: 1 day ago

TLE from 1 day ago
0 STARLINK-5492
1 55331U 23013A   25348.52460761  .00000236  00000-0  32565-4 0  9995
2 55331  43.0079  43.5079 0000687 247.7179 112.3591 15.02520985159978
Epoch: 2025-12-14T12:35Z
TLE epoch observation values (Epoch: 2025-12-14T12:35:26.097Z)
Latitude
0.00001°
Longitude
131.21289°
Altitude
559.086 km
Speed
7.584 km/s
True Right ascension
02h 54m 01s
True Declination
0° 00' 00"
Sunlit
Object was in full shadow at epoch
Visualization orbit readout
Latitude
Unknown
Longitude
Unknown
Altitude
Unknown
Speed
Unknown
Apparent Right ascension
Unknown
Apparent Declination
Unknown
Sunlit
N/A
Visualization observer readout
Local Sidereal Time
13:24:45
Azimuth
Unknown
Elevation
Unknown
Doppler factor
Unknown
Orbital elements
Apogee altitude
561.525 km
Perigee altitude
560.572 km
Semi-major axis
6,939.185 km
Eccentricity
0.00007
Inclination
43.0079°
RAAN
43.5079°
Arg. of periapsis
247.7179°
True anomaly
112.36638°
Mean anomaly
112.3591°
Eccentric anomaly
112.36274°
Mean motion
3.75474 °/min
Orbital period
95.88 mins
BSTAR
0.000032565
Loading maneuver chart data...
Computing Atmospheric mass density...
Loading historical data...
Loading historical data...
Loading historical data...
Loading historical data...
Loading historical data...
Loading historical data...
Loading historical data...

Documentation

Showing up to 5 results
|